This is the latest recevied weather packets stored in our database for station/object PA3BWK. If no packets are shown the sender has not sent any weather packets the latest 10 day(s).
| Time | Temp. | Humidity | Pressure | Rain* | Wind** | Luminosity | Snow |
|---|---|---|---|---|---|---|---|
| 1777559224 | 21.67° C | 26% | 1026.5 hPa | 0 mm | - | 586 W/m² | - |
| 1777559165 | 21.67° C | 26% | 1026.5 hPa | 0 mm | - | 589 W/m² | - |
| 1777559104 | 21.11° C | 27% | 1026.5 hPa | 0 mm | - | 598 W/m² | - |
| 1777559044 | 21.11° C | 25% | 1026.5 hPa | 0 mm | - | 603 W/m² | - |
| 1777558984 | 21.11° C | 24% | 1026.4 hPa | 0 mm | - | 608 W/m² | - |
| 1777558924 | 21.11° C | 27% | 1026.5 hPa | 0 mm | - | 617 W/m² | - |
| 1777558863 | 21.11° C | 26% | 1026.5 hPa | 0 mm | - | 621 W/m² | - |
| 1777558804 | 20.56° C | 25% | 1026.5 hPa | 0 mm | - | 626 W/m² | - |
| 1777558744 | 20.56° C | 25% | 1026.6 hPa | 0 mm | - | 628 W/m² | - |
| 1777558685 | 20.56° C | 26% | 1026.6 hPa | 0 mm | - | 630 W/m² | - |
| 1777558625 | 20.56° C | 25% | 1026.5 hPa | 0 mm | - | 637 W/m² | - |
| 1777558563 | 20.56° C | 26% | 1026.5 hPa | 0 mm | - | 596 W/m² | - |
| 1777558504 | 20.56° C | 24% | 1026.6 hPa | 0 mm | - | 628 W/m² | - |
| 1777558443 | 20.56° C | 25% | 1026.6 hPa | 0 mm | - | 638 W/m² | - |
| 1777558384 | 20.56° C | 24% | 1026.6 hPa | 0 mm | - | 652 W/m² | - |
| 1777558324 | 20.56° C | 25% | 1026.6 hPa | 0 mm | - | 656 W/m² | - |
| 1777558263 | 20.56° C | 24% | 1026.6 hPa | 0 mm | - | 651 W/m² | - |
| 1777558204 | 20.56° C | 24% | 1026.7 hPa | 0 mm | - | 654 W/m² | - |
| 1777558143 | 20.56° C | 25% | 1026.7 hPa | 0 mm | - | 658 W/m² | - |
| 1777558084 | 20.56° C | 24% | 1026.9 hPa | 0 mm | - | 661 W/m² | - |
| 1777558024 | 20.56° C | 23% | 1026.7 hPa | 0 mm | - | 661 W/m² | - |
| 1777557964 | 20.56° C | 25% | 1026.8 hPa | 0 mm | - | 665 W/m² | - |
| 1777557905 | 20.56° C | 25% | 1026.8 hPa | 0 mm | - | 665 W/m² | - |
| 1777557846 | 20.56° C | 25% | 1026.8 hPa | 0 mm | - | 667 W/m² | - |
| 1777557784 | 20.56° C | 24% | 1026.8 hPa | 0 mm | - | 670 W/m² | - |
* Rain latest hour (hover to see other rain measurements)
** Current wind speed in m/s (hover to see current wind gust speed)